Waarnemingen

Advertentie
Mijn weer
Antwerpen, België (6450): temperatuur & dauwpunt: 17.08.2019 13:00:00 - 23.08.2019 13:00:00 (CEST)Antwerpen, België (6450): windsnelheid & windstoten: 17.08.2019 13:00:00 - 23.08.2019 13:00:00 (CEST)Antwerpen, België (6450): windrichting: 17.08.2019 13:00:00 - 23.08.2019 13:00:00 (CEST)Antwerpen, België (6450): luchtdruk: 17.08.2019 13:00:00 - 23.08.2019 13:00:00 (CEST)Antwerpen, België (6450): zicht: 17.08.2019 13:00:00 - 23.08.2019 13:00:00 (CEST)
Datum & Tijd tt [°C] td [°C] ff [km/u] ff [kn] fx [km/u] fx [kn] dd ppp [hPa] vv [km]
23.08.2019 13:00:00 23,9 11,7 7 4 14 8 ONO 1026,1 15
23.08.2019 12:00:00 22,2 12,9 5 3 14 8 - 1026,5 10
23.08.2019 11:00:00 20,9 12,7 5 3 - - O 1026,6 10
23.08.2019 10:00:00 19,0 13,5 4 2 7 4 - 1026,6 10
23.08.2019 09:00:00 16,1 13,8 4 2 4 2 - 1026,6 10
23.08.2019 08:00:00 12,2 11,5 4 2 - - - 1026,5 10
23.08.2019 07:00:00 10,1 9,3 2 1 7 4 - 1026,2 10
23.08.2019 06:00:00 11,1 10,3 4 2 4 2 - 1026,4 8
23.08.2019 05:00:00 11,6 10,8 0 0 - - N 1026,3 10
23.08.2019 04:00:00 10,3 9,5 2 1 4 2 OZO 1026,2 2,7
23.08.2019 03:00:00 11,9 11,0 4 2 7 4 OZO 1026,5 8
23.08.2019 02:00:00 12,1 11,2 5 3 - - ZO 1026,6 9
23.08.2019 01:00:00 12,5 11,4 5 3 7 4 ZZO 1026,6 10
23.08.2019 00:00:00 13,7 11,9 4 2 4 2 ZO 1026,4 10
22.08.2019 23:00:00 16,4 11,2 2 1 - - ZW 1026,2 10
22.08.2019 22:00:00 18,3 11,6 8 4 18 10 N 1026,1 10
22.08.2019 21:00:00 20,0 11,6 11 6 18 10 N 1025,6 10
22.08.2019 20:00:00 21,6 12,0 13 7 - - NNW 1025,2 10
22.08.2019 19:00:00 23,1 12,9 11 6 25 14 NW 1025,0 30
22.08.2019 18:00:00 24,0 8,4 11 6 25 14 WZW 1025,0 10
22.08.2019 17:00:00 24,4 9,2 9 5 - - ZW 1025,1 10
22.08.2019 16:00:00 24,2 9,7 15 8 29 16 W 1025,3 10
22.08.2019 15:00:00 24,2 10,1 8 4 25 14 WZW 1025,7 10
22.08.2019 14:00:00 23,7 10,6 13 7 - - WZW 1026,0 10
22.08.2019 13:00:00 23,0 9,7 13 7 22 12 ZW 1026,2 10
22.08.2019 12:00:00 22,0 9,5 11 6 18 10 ZW 1026,3 10
22.08.2019 11:00:00 20,2 9,5 13 7 - - W 1026,3 10
22.08.2019 10:00:00 18,9 10,8 8 4 14 8 W 1026,2 10
22.08.2019 09:00:00 16,4 14,2 4 2 7 4 - 1025,9 10
22.08.2019 08:00:00 11,7 10,8 4 2 - - ZO 1025,7 15
22.08.2019 07:00:00 9,7 8,6 2 1 4 2 OZO 1025,2 10
22.08.2019 06:00:00 9,6 9,0 4 2 4 2 OZO 1025,2 4,0
22.08.2019 05:00:00 10,2 9,3 2 1 - - ZZO 1025,5 8
22.08.2019 04:00:00 11,2 9,7 0 0 0 0 N 1025,7 10
22.08.2019 03:00:00 11,3 9,4 0 0 4 2 N 1025,8 10
22.08.2019 02:00:00 11,9 9,4 0 0 - - N 1026,2 17
22.08.2019 01:00:00 13,3 9,9 0 0 4 2 N 1026,4 10
22.08.2019 00:00:00 13,8 10,4 2 1 4 2 ZO 1026,6 10
21.08.2019 23:00:00 14,1 10,8 4 2 - - ZZO 1026,7 10
21.08.2019 22:00:00 17,8 9,8 4 2 7 4 ZO 1026,7 10
21.08.2019 21:00:00 18,9 10,0 5 3 7 4 O 1026,5 10
21.08.2019 20:00:00 20,9 9,6 5 3 - - OZO 1026,4 10
21.08.2019 19:00:00 21,7 8,5 5 3 14 8 ZO 1026,5 10
21.08.2019 18:00:00 22,3 8,4 8 4 14 8 OZO 1026,8 10
21.08.2019 17:00:00 22,1 8,1 8 4 - - OZO 1027,2 10
21.08.2019 16:00:00 22,1 8,7 7 4 18 10 O 1027,6 20
21.08.2019 15:00:00 21,6 8,3 2 1 18 10 - 1027,9 10
21.08.2019 14:00:00 21,4 7,4 11 6 - - Z 1028,3 10
21.08.2019 13:00:00 20,8 7,9 8 4 18 10 Z 1028,7 10
21.08.2019 12:00:00 19,6 8,3 9 5 18 10 ZZW 1029,1 10
21.08.2019 11:00:00 18,7 11,3 11 6 - - ZZW 1029,3 10
21.08.2019 10:00:00 16,9 12,1 8 4 11 6 Z 1029,2 10
21.08.2019 09:00:00 14,5 11,3 5 3 11 6 ZW 1029,1 10
21.08.2019 08:00:00 11,3 10,5 5 3 - - ZZO 1028,7 10
21.08.2019 07:00:00 9,2 8,4 4 2 4 2 ZO 1028,3 10
21.08.2019 06:00:00 9,6 8,8 2 1 4 2 - 1028,0 10
21.08.2019 05:00:00 9,8 8,9 4 2 - - ZZO 1027,8 10
21.08.2019 04:00:00 10,2 9,3 2 1 7 4 - 1027,8 10
21.08.2019 03:00:00 9,9 9,3 8 4 7 4 ZZW 1027,7 10
21.08.2019 02:00:00 9,8 8,8 2 1 - - - 1027,6 10
21.08.2019 01:00:00 11,1 9,6 4 2 4 2 - 1027,4 10
21.08.2019 00:00:00 15,2 11,3 4 2 14 8 W 1027,1 22
20.08.2019 23:00:00 16,3 10,8 9 5 - - W 1026,8 10
20.08.2019 22:00:00 17,0 10,3 11 6 22 12 WNW 1026,3 10
20.08.2019 21:00:00 17,9 9,9 13 7 25 14 WNW 1025,9 10
20.08.2019 20:00:00 18,9 8,7 16 9 - - NW 1025,2 10
20.08.2019 19:00:00 19,8 10,2 18 10 29 16 NW 1024,5 10
20.08.2019 18:00:00 19,6 10,0 16 9 32 18 NW 1024,2 10
20.08.2019 17:00:00 21,4 8,6 18 10 - - W 1023,7 10
20.08.2019 16:00:00 20,9 8,8 18 10 36 19 WNW 1023,4 10
20.08.2019 15:00:00 20,5 10,5 16 9 29 16 W 1023,1 10
20.08.2019 14:00:00 20,9 9,7 15 8 - - WZW 1023,0 10
20.08.2019 13:00:00 19,2 10,2 15 8 25 14 W 1023,0 10
20.08.2019 12:00:00 18,8 11,1 13 7 29 16 W 1022,8 10
20.08.2019 11:00:00 18,1 12,3 16 9 - - WZW 1022,7 10
20.08.2019 10:00:00 16,7 12,8 13 7 22 12 ZW 1022,7 10
20.08.2019 09:00:00 15,0 12,1 11 6 18 10 WZW 1022,2 10
20.08.2019 08:00:00 13,3 11,5 13 7 - - ZZW 1022,0 10
20.08.2019 07:00:00 12,6 11,3 9 5 18 10 ZZW 1021,1 10
20.08.2019 06:00:00 12,8 11,3 11 6 18 10 ZW 1020,7 10
20.08.2019 05:00:00 13,2 11,4 11 6 - - ZW 1020,7 10
20.08.2019 04:00:00 13,7 11,1 13 7 22 12 ZW 1020,5 10
20.08.2019 03:00:00 14,0 10,6 13 7 22 12 ZW 1020,4 10
20.08.2019 02:00:00 14,3 10,0 11 6 - - ZW 1020,3 10
20.08.2019 01:00:00 15,0 9,6 11 6 22 12 ZW 1020,1 10
20.08.2019 00:00:00 15,7 9,5 13 7 18 10 ZW 1019,7 10
19.08.2019 23:00:00 16,7 9,2 11 6 - - ZW 1019,4 10
19.08.2019 22:00:00 17,6 8,9 13 7 25 14 WZW 1019,1 10
19.08.2019 21:00:00 18,9 8,9 15 8 36 19 WZW 1018,3 10
19.08.2019 20:00:00 20,1 9,3 22 12 - - WZW 1017,9 10
19.08.2019 19:00:00 20,7 9,3 21 11 40 21 WZW 1017,6 10
19.08.2019 18:00:00 20,5 9,2 22 12 43 23 WZW 1017,6 10
19.08.2019 17:00:00 20,9 8,4 26 14 - - WZW 1017,3 10
19.08.2019 16:00:00 21,5 9,8 16 9 36 19 WZW 1017,1 10
19.08.2019 15:00:00 20,9 9,9 24 13 36 19 ZW 1017,0 10
19.08.2019 14:00:00 20,1 11,4 22 12 - - ZW 1016,7 10
19.08.2019 13:00:00 20,5 10,7 22 12 40 21 WZW 1016,2 10
19.08.2019 12:00:00 18,9 11,4 21 11 40 21 ZW 1015,9 10
19.08.2019 11:00:00 17,8 11,4 21 11 - - ZW 1015,7 10
19.08.2019 10:00:00 16,8 11,8 16 9 32 18 ZW 1015,3 10
19.08.2019 09:00:00 15,1 11,4 16 9 32 18 ZW 1015,0 10
19.08.2019 08:00:00 13,7 11,2 16 9 - - ZW 1014,7 10
19.08.2019 07:00:00 13,4 11,5 15 8 22 12 ZZW 1014,0 10
19.08.2019 06:00:00 13,4 11,7 13 7 22 12 ZZW 1013,6 10
19.08.2019 05:00:00 13,3 11,6 15 8 - - ZZW 1013,0 10
19.08.2019 04:00:00 13,5 11,3 11 6 22 12 ZW 1012,8 10
19.08.2019 03:00:00 13,9 11,0 15 8 25 14 ZZW 1012,6 10
19.08.2019 02:00:00 14,5 10,4 11 6 - - ZW 1012,3 10
19.08.2019 01:00:00 15,2 9,7 15 8 22 12 ZW 1011,7 10
19.08.2019 00:00:00 15,7 8,8 13 7 29 16 ZW 1011,4 10
18.08.2019 23:00:00 16,7 9,5 15 8 - - ZW 1010,9 10
18.08.2019 22:00:00 17,2 10,6 15 8 25 14 ZW 1010,3 10
18.08.2019 21:00:00 18,5 10,2 15 8 36 19 WZW 1009,7 10
18.08.2019 20:00:00 20,0 8,7 26 14 - - W 1009,1 10
18.08.2019 19:00:00 20,8 12,1 18 10 40 21 WZW 1008,2 10
18.08.2019 18:00:00 20,7 13,5 21 11 36 19 WZW 1008,0 10
18.08.2019 17:00:00 20,5 14,4 22 12 - - WZW 1007,7 10
18.08.2019 16:00:00 19,3 15,4 18 10 25 14 WZW 1007,3 10
18.08.2019 15:00:00 17,9 15,5 13 7 22 12 WZW 1006,8 10
18.08.2019 14:00:00 16,1 15,3 13 7 - - WZW 1006,2 3,0
18.08.2019 13:00:00 16,7 15,2 9 5 14 8 ZZW 1005,5 10
18.08.2019 12:00:00 15,8 14,5 5 3 11 6 ZZO 1004,7 10
18.08.2019 11:00:00 15,3 14,4 5 3 - - Z 1004,7 7
18.08.2019 10:00:00 15,4 14,3 2 1 11 6 - 1004,4 5
18.08.2019 09:00:00 15,7 15,1 9 5 14 8 ZZO 1004,5 6
18.08.2019 08:00:00 15,7 15,0 8 4 - - ZZO 1005,1 9
18.08.2019 07:00:00 15,7 15,0 8 4 11 6 Z 1006,0 9
18.08.2019 06:00:00 15,9 14,6 8 4 18 10 ZZW 1006,3 10
18.08.2019 05:00:00 16,1 14,8 9 5 - - ZZW 1006,8 10
18.08.2019 04:00:00 16,3 14,5 9 5 18 10 ZW 1007,1 10
18.08.2019 03:00:00 16,5 14,6 9 5 18 10 ZW 1007,7 10
18.08.2019 02:00:00 16,7 14,9 13 7 - - ZW 1007,7 10
18.08.2019 01:00:00 16,9 15,6 11 6 18 10 ZZW 1007,9 10
18.08.2019 00:00:00 16,9 15,8 9 5 18 10 ZW 1007,8 10
17.08.2019 23:00:00 17,3 16,1 11 6 - - ZW 1007,7 10
17.08.2019 22:00:00 17,6 16,3 11 6 22 12 ZZW 1007,9 10
17.08.2019 21:00:00 18,1 16,8 9 5 18 10 ZW 1007,6 10
17.08.2019 20:00:00 18,5 16,7 11 6 - - ZW 1007,7 10
17.08.2019 19:00:00 18,6 17,5 15 8 25 14 ZW 1007,5 7
17.08.2019 18:00:00 19,7 18,4 16 9 32 18 WZW 1007,7 7
17.08.2019 17:00:00 20,5 17,8 18 10 - - ZZW 1007,3 10
17.08.2019 16:00:00 19,9 17,6 16 9 32 18 ZZW 1007,5 10
17.08.2019 15:00:00 20,0 17,2 15 8 32 18 ZZW 1007,4 10
17.08.2019 14:00:00 19,8 16,9 18 10 - - ZZW 1007,7 10
17.08.2019 13:00:00 19,1 17,3 18 10 32 18 Z 1007,9 20

tt = temperatuur
td = dauwpunt
ff = windsnelheid
fx = windstoten
dd = windrichting
ppp = luchtdruk
vv = zicht

Weerstations in de omgeving